sat.trackr.live / text

‹ back to catalog

STARLINK-32269

NORAD 60377 · 2024-138Y

PAYLOAD ACTIVE UNKNOWN

§ Identity

Operator
Country
US
Launch date
2024-08-04
Launch site
AFWTR
Launch vehicle
Mass (kg)
RCS (m²)

Purposes: comms

External: N2YO · Heavens-Above · Gunter

§ Orbital elements

Epoch: 2026-05-24T21:15:40.451040Z

Period
94.11 min
Inclination
53.1611°
Eccentricity
0.0001208
Mean motion
15.30192609 rev/d
Perigee alt
474.4 km
Apogee alt
476.1 km
Semi-major
6,853.4 km
B*
2.9352e-5
RAAN
315.6705°
Arg perigee
80.1419°
Mean anomaly
279.9718°
Rev number
10,229

§ Raw data

STARLINK-322691 60377U 24138Y   26144.88588485  .00000510  00000+0  29352-4 0  99922 60377  53.1611 315.6705 0001208  80.1419 279.9718 15.30192609102296

JSON: /api/v1/satellites/60377 · /tle

For live sub-satellite position, see the globe view (requires WebGL).

§ Visibility from observer

Set your observer location to see the next 7 days of passes ≥ 10°. The values pass through the URL so the page stays shareable.

No JS? Fill the form by hand. The geolocation button needs JavaScript.